Regional Weather Roundup
Issued by NWS Newport/Morehead, NC

Current Version | Previous Version | Graphics & Text | Print | Product List | Glossary Off
Versions: 1 2 3 4 5 6 7 8 9 10 11 12 13 14 15 16 17 18 19 20 21 22 23 24 25 26 27 28 29 30 31 32 33 34 35 36 37 38 39 40 41 42 43 44 45 46 47 48 49 50

000
ASUS42 KMHX 231710
RWRMHX
WEATHER ROUNDUP FOR EASTERN NORTH CAROLINA
NATIONAL WEATHER SERVICE NEWPORT/MOREHEAD CITY NC
100 PM EDT SAT AUG 23 2014

NOTE: "FAIR" INDICATES FEW OR NO CLOUDS BELOW 12,000 FEET
WITH NO SIGNIFICANT WEATHER AND/OR OBSTRUCTIONS TO VISIBILITY

NCZ015>017-031-032-045>047-102-103-231800-
NORTH COAST

CITY           SKY/WX    TMP DP  RH WIND       PRES   REMARKS
EDENTON        PTSUNNY   81  72  73 E7        29.97S
ELIZABETH CITY LGT RAIN  75  73  93 E7        29.98S FOG
KITTY HAWK     PTSUNNY   81  71  71 E6        29.96F
MANTEO         CLOUDY    81  72  74 NE13      29.97F

$$

NCZ045>047-081-094-103-104-231800-
CENTRAL COAST

CITY           SKY/WX    TMP DP  RH WIND       PRES   REMARKS
FRISCO         PTSUNNY   82  71  69 E9        29.95F
SWANQUARTER      N/A     84 N/A N/A CALM      29.91F

$$

NCZ095-097-098-100-101-231800-
SOUTHERN COAST

CITY           SKY/WX    TMP DP  RH WIND       PRES   REMARKS
BEAUFORT       MOSUNNY   84  76  76 VRB6      29.94F
CEDAR ISLAND     N/A     82 N/A N/A NE10      30.00S
JACKSONVILLE   PTSUNNY   81  75  82 SE8       29.95R
NEWPORT        NOT AVBL
PINEY ISLAND   LGT RAIN  83  74  74 NE10      29.95F
WILMINGTON     PTSUNNY   84  76  76 E9        29.93S


$$

NCZ011>013-027>030-043-044-078>080-089-090>093-098-231800-
COASTAL PLAIN

CITY           SKY/WX    TMP DP  RH WIND       PRES   REMARKS
AHOSKIE        PTSUNNY   78  71  80 NE5       29.98F
CLINTON        PTSUNNY   87  77  72 CALM      29.94S
ELIZABETHTOWN  MOSUNNY   87  73  64 CALM      29.93S
GOLDSBORO      PTSUNNY   84  79  83 N6        29.93S
GREENVILLE     MOSUNNY   82  73  74 E6        29.97F
HAVELOCK       PTSUNNY   85  75  72 NE12      29.95F
KENANSVILLE    SUNNY     85  72  65 SE3       29.94F
KINSTON        SUNNY     84  73  70 E5        29.96F
NEW BERN       PTSUNNY   86  73  65 SE5       29.96F
RICHLANDS      PTSUNNY   84  72  65 E7        29.94S
ROANOKE RAPIDS NOT AVBL
ROCKY MOUNT    PTSUNNY   83  72  69 VRB3      29.97F
WASHINGTON     SUNNY     81  71  69 E7        29.95F
WHITEVILLE     MOSUNNY   87  77  71 NE6       29.92S

$$

AMZ130-135-150-152-154-156-158-170-250-252-270-ANZ085-086-088-633-658-670-231800-
MARINE OBSERVATIONS

STATION/POSITION TIME  TEMP    WIND        PRES    WAVE   SWELL
                       AIR SEA DIR/SP/G            HT/PER HT/PER
                 (UTC) (F)     (DEG/KT/KT) (MB)    (FT/S) (FT/S)
CHESAPEAKE LIGHT 1600   75      70/ 13/ 14 1016.2
BUOY 44014       1700   77 78   60/ 10/ 12 1014.4    3/ 5   2/ 5
DUCK             1700   78 80   80/ 12/ 13 1014.2
2E DUCK          1700                        N/A     3/ 5
OREGON INLET     1700   79 81   40/ 12/ 16 1014.4
BUOY 44095       1700      80                N/A     3/ 8
20E OREGON INLET NOT AVBL
HATTERAS CG      1700   81 81   40/  7/ 11 1014.7
DIAMOND BUOY     1600   78     350/  8/ 10 1014.4    2/ 8   2/ 8
CAPE LOOKOUT     1600   78      80/ 10/ 11 1014.1
BEAUFORT LAB     1700   82 83   80/  4/  8 1013.6
30 SE NEW RIVER  1700   81 83   90/ 16/ 17 1012.7    2/ 8   2/ 8
5 SE WRIGHTSVILL 1700   78 83   90/ 14/ 16   N/A
BUOY 41002       1559   82 83  300/  6/  8 1014.7    3/ 5   2/ 5
BUOY 41004       1700   85 85  260/  6/  6 1012.2    2/ 4   2/ 4

$$


USA.gov is the U.S. government's official web portal to all federal, state and local government web resources and services.